153  
ASUS41 KOKX 020205  
RWROKX  
 
REGIONAL WEATHER ROUNDUP  
NATIONAL WEATHER SERVICE NEW YORK NY  
1000 PM EDT FRI AUG 01 2014  
 
NOTE: "FAIR" INDICATES FEW OR NO CLOUDS BELOW 12,000 FEET WITH NO  
SIGNIFICANT WEATHER AND/OR S TO VISIBILITY
.  
 
NYZ071-072-176-178-NJZ106-104-020300-  
NEW YORK CITY METRO AREA  
 
 
CITY SKY/WX TMP DP RH WIND PRES REMARKS
 
CENTRAL PARK CLOUDY 74 62 66 CALM 30.23S  
LAGUARDIA APRT CLOUDY 77 61 57 VRB5 30.20R  
KENNEDY INTL CLOUDY 74 67 78 SE3 30.22R  
NEWARK/LIBERTY CLOUDY 75 67 76 SE3 30.19F  
BRNX BOT. GARD N/A N/A N/A N/A S1 30.20F  
TETERBORO CLOUDY 74 67 78 N6 30.19S  

 
 
NYZ177-179-078>081-020300-  
LONG ISLAND NEW YORK  
 
CITY SKY/WX TMP DP RH WIND PRES REMARKS
 
FARMINGDALE CLOUDY 72 64 76 S3 30.22R  
ISLIP CLOUDY 74 66 76 S3 30.21R  
SHIRLEY LGT RAIN 71 66 84 CALM 30.23R  
WESTHAMPTON CLOUDY 71 67 87 CALM 30.24R  
MONTAUK POINT N/A 70 68 93 CALM 30.24R  

 
 
NYZ052-065-067-020300-  
HUDSON VALLEY  
 
CITY SKY/WX TMP DP RH WIND PRES REMARKS
 
WHITE PLAINS CLOUDY 69 66 90 CALM 30.21S  
NEWBURGH NOT AVBL  
MONTGOMERY CLOUDY 67 64 90 CALM 30.21S  
POUGHKEEPSIE CLOUDY 69 67 93 CALM 30.20S FOG  
ALBANY MOCLDY 72 62 71 S8 30.19R  

 
 
NJZ001-105-106-008-010-013-015-019>022-104-020300-  
NEW JERSEY  
 
CITY SKY/WX TMP DP RH WIND PRES REMARKS
 
NEWARK/LIBERTY CLOUDY 75 67 76 SE3 30.19F  
TETERBORO CLOUDY 74 67 78 N6 30.19S  
CALDWELL CLOUDY 69 66 90 CALM 30.21S FOG  
MORRISTOWN CLOUDY 70 68 94 CALM 30.21S  
SOMERVILLE CLOUDY 69 67 93 CALM 30.19R  
LINDEN FAIR 78 72 80 CALM 30.21S  
SUSSEX CLOUDY 69 64 84 CALM 30.21S  
ANDOVER N/A 67 64 90 CALM 30.22R  
TRENTON CLOUDY 69 66 90 N3 30.20R  
MILLVILLE LGT RAIN 71 68 90 E5 30.19R  
ATLANTIC CITY CLOUDY 70 68 93 E3 30.19R  
WRIGHTSTOWN CLOUDY 70 70 100 SE5 30.17S  
TOMS RIVER CLOUDY 70 66 88 CALM 30.20S  
BELMAR CLOUDY 72 64 78 SE3 30.20S  

 
 
PAZ047>061-062-071-020300-  
EASTERN PENNSYLVANIA  
 
CITY SKY/WX TMP DP RH WIND PRES REMARKS
 
PHILADELPHIA MOCLDY 73 68 84 SE3 30.19R  
ALLENTOWN CLOUDY 68 65 90 CALM 30.21R  
SCRANTON CLOUDY 69 61 75 CALM 30.20R  

 
 
CTZ002-004>006-009-010-012-RIZ004-006-007-MAZ004-011-015-020300-  
SOUTHERN NEW ENGLAND  
IN CT  
 
CITY SKY/WX TMP DP RH WIND PRES REMARKS
 
BRADLEY INTL CLOUDY 68 64 87 NW3 30.21R  
HARTFORD CLOUDY 72 66 81 S3 30.21R  
DANBURY MOCLDY 69 64 84 CALM 30.23S  
WTRBRY/OXFORD CLOUDY 68 63 83 CALM 30.25S  
BRIDGEPORT CLOUDY 74 68 81 E3 30.22R  
MERIDEN CLOUDY 71 66 84 CALM 30.22R  
NEW HAVEN CLOUDY 75 68 78 CALM 30.22R  
CHESTER FAIR 70 66 88 CALM 30.24S  
GROTON CLOUDY 70 69 97 CALM 30.22S  
WILLIMANTIC CLOUDY 70 66 87 SW3 30.23S  
 
IN RI  
 
CITY SKY/WX TMP DP RH WIND PRES REMARKS
 
PROVIDENCE CLOUDY 71 65 81 S5 30.23S  
BLOCK ISLAND CLOUDY 70 64 83 CALM 30.24S  
WESTERLY CLOUDY 71 67 87 CALM 30.23S  
 
IN MA  
 
CITY SKY/WX TMP DP RH WIND PRES REMARKS
 
BOSTON CLOUDY 72 63 73 S6 30.21S  
WORCESTER MOCLDY 67 64 90 SW5 30.25S  
WESTFIELD CLOUDY 67 65 93 CALM 30.22R  
PROVINCETOWN CLOUDY 68 64 88 CALM 30.24S  
NANTUCKET CLOUDY 64 60 87 E5 30.24R  

 
 
ANZ330-335-338-340-345-350-353-355-020300-  
COASTAL MARINE OBSERVATIONS  
 
 
STATION/POSITION TIME SKY/WX TEMP WIND PRES VSBY WAVE
 
AIR SEA DIR/SP/G HT/PER  
(UTC) (F) (DEG/KT/KT) (MB) (MI) (FT/S)  
NY HARB ENTRANCE NOT AVBL  
4S FIRE IS NOT AVBL  
23SW MTP 0200 71 70 1022.9 3/ 7  
HUDSON CANYON 0200 75 75 120/ 6/ 8 1022.4 3/ 7  
EXECUTION ROCKS 0200 73 70 150/ 2/ 2 N/A  
WESTERN LI SOUND 0200 73 180/ 2/ 4 N/A 0  
CENTRAL LI SOUND 0200 73 72 CALM / 2 N/A 1  
EASTERN LI SOUND 0100 69 69 30/ 2/ 4 N/A  
ROBBINS REEF 0200 74 150/ 4/ 4 N/A  

 
 
>>>>>>>>>>>>>>>>>>>>>>>>>>>> KEY <<<<<<<<<<<<<<<<<<<<<<<<<<<  
> <  
> SKY/WX - SKY CONDITION/PRESENT WEATHER <  
> TMP - TEMPERATURE IN FAHRENHEIT <  
> DP - DEWPOINT IN FAHRENHEIT <  
> RH - RELATIVE HUMIDITY IN PERCENT <  
> WIND - DIRECTION AND SPEED IN MPH <  
> PRES - MEAN SEA LEVEL PRESSURE IN INCHES OF HG <  
> WCI - WIND CHILL INDEX <  
> VSB - VISIBILITY IN MILES <  
> HX - HEAT INDEX <  
> TC - TEMPERATURE IN CELSIUS <  
> VRB - VARIABLE WIND DIRECTION <  
> <  
>>>>>>>>>>>>>>>>>>>>>>>>>>>> KEY <<<<<<<<<<<<<<<<<<<<<<<<<<<  
 
CLICK HERE TO GO TO PREVIOUS BULLETINS.

The Nexlab NY Page
The Nexlab NJ Page
The Nexlab CT Page Main Text Page